Weather History for KGLD - April, 2012

Change the Weather History Date:

Wednesday, April 25, 2012

  Actual Average Record
Temperature  
Mean Temperature 67 °F 52 °F  
Max Temperature 86 °F 67 °F 88 °F (1981)
Min Temperature 48 °F 38 °F 22 °F (2002)
Degree Days  
Heating Degree Days 0 13  
Month to date heating degree days 286 419  
Since 1 July heating degree days 4881 5594  
Cooling Degree Days 2 0  
Month to date cooling degree days 13 0  
Year to date cooling degree days 15 0  
Growing Degree Days 18 (Base 50)    
Moisture  
Dew Point 42 °F    
Average Humidity 43    
Maximum Humidity 67    
Minimum Humidity 19    
Precipitation  
Precipitation 0.00 in 0.06 in 0.78 in (1930)
Month to date precipitation 2.14 1.28  
Year to date precipitation 3.25 3.22  
Snow  
Snow 0.00 in 0.10 in - ()
Month to date snowfall T 3.9  
Since 1 July snowfall 17.1 34.7  
Snow Depth 0.00 in    
Sea Level Pressure  
Sea Level Pressure 29.76 in    
Wind  
Wind Speed 10 mph (NNE)    
Max Wind Speed 18 mph    
Max Gust Speed 24 mph    
Visibility 10 miles    
Events      
T = Trace of Precipitation, MM = Missing Value Source: NWS Daily Summary

Daily Weather History Graph

Daily Weather History Graph

Search for Another Location

Airport or City:

Trip Planner

Search our weather history database for the weather conditions in past years. The results will help you decide how hot, cold, wet, or windy it might be!

Date:

Astronomy

Apr. 25, 2012 Rise Set
Actual Time 5:54 AM MDT 7:34 PM MDT
Civil Twilight 5:26 AM MDT 8:03 PM MDT
Nautical Twilight 4:52 AM MDT 8:38 PM MDT
Astronomical Twilight 4:15 AM MDT 9:14 PM MDT
Moon 8:42 AM MDT 11:41 PM MDT
Length of Visible Light 14h 37m
Length of Day
13h 39m
Waxing Crescent, 17% of the Moon is Illuminated
Apr 25
Waxing Crescent
Apr 29
First Quarter
May 5
Full
May 12
Last Quarter
May 20
New

Hourly Weather History & Observations

Time (MDT) Temp. Dew Point Humidity Pressure Visibility Wind Dir Wind Speed Gust Speed Precip Events Conditions
12:53 AM 55.9 °F 37.9 °F 51% 29.63 in 10.0 mi SSW 9.2 mph - N/A   Clear
1:53 AM 63.0 °F 35.1 °F 35% 29.62 in 10.0 mi WNW 11.5 mph - N/A   Clear
2:53 AM 57.2 °F 35.6 °F 44% 29.77 in 10.0 mi West 11.5 mph - N/A   Clear
3:53 AM 51.1 °F 37.0 °F 59% 29.65 in 10.0 mi WSW 9.2 mph - N/A   Clear
4:53 AM 51.1 °F 36.0 °F 56% 29.68 in 10.0 mi WNW 9.2 mph - N/A   Clear
5:53 AM 50.0 °F 37.0 °F 61% 29.73 in 10.0 mi West 11.5 mph - N/A   Clear
6:53 AM 57.0 °F 39.0 °F 51% 29.72 in 10.0 mi WNW 9.2 mph - N/A   Clear
7:53 AM 66.0 °F 42.1 °F 42% 29.73 in 10.0 mi NNW 4.6 mph - N/A   Clear
8:53 AM 72.0 °F 42.1 °F 34% 29.73 in 10.0 mi NNW 10.4 mph 17.3 mph N/A   Clear
9:53 AM 75.0 °F 43.0 °F 32% 29.74 in 10.0 mi NNW 13.8 mph - N/A   Clear
10:53 AM 77.0 °F 42.1 °F 29% 29.77 in 10.0 mi North 13.8 mph - N/A   Clear
11:53 AM 80.1 °F 43.0 °F 27% 29.78 in 10.0 mi NNE 17.3 mph - N/A   Clear
12:53 PM 82.4 °F 44.6 °F 26% 29.88 in 10.0 mi North 16.1 mph 21.9 mph N/A   Clear
1:53 PM 84.0 °F 42.1 °F 23% 29.75 in 10.0 mi NNE 15.0 mph 21.9 mph N/A   Clear
2:53 PM 84.9 °F 41.0 °F 21% 29.75 in 10.0 mi NNE 10.4 mph 18.4 mph N/A   Clear
3:53 PM 86.0 °F 39.9 °F 20% 29.75 in 10.0 mi NNE 15.0 mph 21.9 mph N/A   Clear
4:53 PM 84.9 °F 42.1 °F 22% 29.76 in 10.0 mi ENE 11.5 mph - N/A   Clear
5:53 PM 81.0 °F 46.9 °F 30% 29.79 in 10.0 mi ENE 9.2 mph - N/A   Clear
6:53 PM 70.0 °F 52.0 °F 53% 29.81 in 10.0 mi East 6.9 mph - N/A   Clear
7:53 PM 64.9 °F 46.9 °F 52% 29.81 in 10.0 mi ESE 8.1 mph - N/A   Clear
8:53 PM 63.0 °F 45.0 °F 52% 29.83 in 10.0 mi ESE 3.5 mph - N/A   Clear
9:53 PM 64.0 °F 45.0 °F 50% 29.83 in 10.0 mi SE 4.6 mph - N/A   Clear
10:53 PM 57.9 °F 46.0 °F 65% 29.85 in 10.0 mi East 4.6 mph - N/A   Clear
11:53 PM 57.0 °F 45.0 °F 64% 29.85 in 10.0 mi SE 6.9 mph - N/A   Clear